Miscellaneous Local Product
Issued by NWS North Platte, NE

Home | Current Version | Previous Version | Graphics & Text | Print | Product List | Glossary On
Versions: 1 2 3 4 5 6 7 8 9 10 11 12 13 14 15 16 17 18 19 20 21 22 23 24 25 26 27 28 29 30 31 32 33 34 35 36 37 38 39 40 41 42 43 44 45 46 47 48 49 50
039
AXUS43 KLBF 271110
MISLBF


WESTERN AND NORTH CENTRAL NEBRASKA HOURLY WEATHER ROUNDUP
NATIONAL WEATHER SERVICE NORTH PLATTE NE
600 AM CDT THU JUL 27 2017

NOTE: "FAIR" INDICATES FEW OR NO CLOUDS BELOW 12,000 FEET WITH NO
SIGNIFICANT WEATHER AND/OR OBSTRUCTIONS TO VISIBILITY.

NOTE: STATIONS NOT REPORTING VARIABLES SUCH AS SKY/WEATHER OR
PRESSURE ARE PROVIDED BY RAWS AND APRS NETWORKS AND ARE NOT UNDER
NATIONAL WEATHER SERVICE QUALITY CONTROL.

...OBSERVATIONS IN AND NEAR THE EASTERN PANHANDLE OF NEBRASKA...

CITY           SKY/WX    TMP DP  RH WIND       PRES   REMARKS
PINE RIDGE     CLOUDY    71  60  68 VRB6      30.17R
GORDON         CLOUDY    67  60  77 S6        30.19R
CHADRON        CLOUDY    72  63  73 S10       30.15S
ALLIANCE       MOCLDY    67  64  90 SE9       30.20R
SIDNEY         CLOUDY    65  62  90 E5        30.23R
CRESCENT LAKE    N/A     67  65  95 E6          N/A
$$

...OBSERVATIONS IN NORTHERN NEBRASKA AND FAR SOUTHERN SOUTH DAKOTA...

CITY           SKY/WX    TMP DP  RH WIND       PRES   REMARKS
WINNER         FAIR      67  59  75 CALM      30.14R
VALENTINE      CLOUDY    61  56  83 CALM      30.17R
THEDFORD       CLEAR     61  60  96 CALM      30.19S
AINSWORTH      CLEAR     59  58  99 CALM      30.17S
O`NEILL        CLEAR     60  60 100 N5        30.15R
ORD            CLEAR     60  57  89 NW5       30.13R
BROKEN BOW     CLEAR     61  59  93 N5        30.15R
HALSEY           N/A     61  60  96 CALM        N/A
BUTTE            N/A     66  58  75 CALM        N/A
CHAMBERS         N/A     60  58  95 CALM        N/A
EWING            N/A     62  60  94 CALM        N/A
$$

...OBSERVATIONS IN SOUTHWEST NEBRASKA AND FAR NORTHEAST COLORADO...

CITY           SKY/WX    TMP DP  RH WIND       PRES   REMARKS
HOLYOKE        CLOUDY    68  63  83 CALM      30.19S
IMPERIAL       CLOUDY    68  64  87 NE6       30.16S
OGALLALA       CLOUDY    69  67  92 E7        30.17F
NORTH PLATTE   CLOUDY    68  61  78 E5        30.16S
MCCOOK         CLOUDY    71  69  93 NE9       30.13R
LEXINGTON      CLOUDY    68  63  83 NE8       30.14R
STAPLETON        N/A     63  60  90 CALM        N/A
GOTHENBURG       N/A     69  60  72 NE3         N/A
CALLAWAY         N/A     66  62  88 NE6         N/A
$$

...OBSERVATIONS IN CENTRAL LINCOLN COUNTY AREA...

CITY           SKY/WX    TMP DP  RH WIND       PRES   REMARKS
N.P. AIRPORT   CLOUDY    68  61  78 E5        30.16S
N.P. DOWNTOWN    N/A     68  62  79 E5          N/A
N.P. SOUTHEAST   N/A     67  60  79 CALM        N/A
N.P. HILLCREST   N/A     67  61  80 E10         N/A
$$

...SOME OBSERVATIONS FROM AROUND THE REGION...

CITY           SKY/WX    TMP DP  RH WIND       PRES   REMARKS
DENVER         MOCLDY    60  58  92 E8        30.22F
LIMON          CLOUDY    62  61  96 CALM      30.27R
ASPEN          CLOUDY    55  51  86 SW6       30.39S
LARAMIE        CLEAR     53  52  96 S9        30.32S
CASPER         CLOUDY    56  54  93 N7        30.20S
CHEYENNE       CLEAR     60  56  86 S6        30.27F
SCOTTSBLUFF    LGT RAIN  68  65  90 E9        30.19S
GRAND ISLAND   CLEAR     64  64 100 N6        30.11R
OMAHA          CLEAR     67  64  90 NW7       30.04R
SIOUX FALLS    CLEAR     59  58  96 CALM      30.10S
PIERRE         CLEAR     60  54  80 E3        30.12R
RAPID CITY     CLOUDY    67  56  67 S6        30.16R
BISMARCK       CLOUDY    66  58  75 NE6       30.15R
KANSAS CITY    CLOUDY    74  73  97 NE5       29.96F
HILL CITY      CLOUDY    73  70  90 NE14      30.08S
WICHITA        CLOUDY    80  70  71 S13       29.94R
DODGE CITY     CLOUDY    74  70  87 N12       30.05R
OKLAHOMA CITY  CLOUDY    78  68  71 SE5       29.98F
DALLAS         PTCLDY    81  72  74 S10       30.00R
AMARILLO       CLOUDY    73  62  68 N9        30.13R
$$




USA.gov is the U.S. government's official web portal to all federal, state and local government web resources and services.